Temp
51 47 43 47 49 49 47 44 45 49 56 51 49 52 56 59 53 53 54 54 56 58 64 64 64 65 64 65 65 65 64 63 63 62 61 61 61 61 60 61 62 61 62 61
47 44 51 54 51 50 47 46 45 50 54 49 47 48 53 52 56 55 55 55 58 59 61 61 62 62 64 64 65 66 65 65 64 65 64 63 62 60 61 61 61 62 61 61
44 48 54 51 49 47 47 45 44 47 49 46 45 45 48 51 56 57 56 59 59 60 62 62 60 61 63 64 64 65 66 66 66 66 63 58 59 57 58 59 61 61 62 62
46 54 50 49 47 48 43 49 49 49 45 39 48 38 42 47 53 54 59 61 61 60 60 63 62 61 62 64 65 66 65 65 65 66 63 62 62 60 62 63 62 61 61 62
42 45 46 45 47 51 46 51 49 49 45 42 42 39 41 43 45 48 55 58 62 62 63 62 61 63 63 65 65 65 65 64 65 65 65 63 63 64 63 59 59 60 61 62
40 46 46 50 53 53 51 49 47 45 43 34 40 40 42 44 47 50 57 56 61 62 60 61 61 61 62 63 64 63 63 63 64 64 65 63 63 63 58 59 60 59 60 61
41 42 47 51 48 53 49 44 33 32 31 32 39 36 46 46 49 54 57 55 54 54 54 59 56 55 57 56 59 61 62 62 63 63 63 64 63 62 61 60 60 60 59 60
34 32 42 51 48 45 46 46 36 28 30 33 33 33 41 51 56 53 53 53 51 52 51 52 55 55 56 56 57 60 60 62 61 62 62 64 63 63 63 62 62 61 61 61
34 34 46 49 50 52 45 40 47 32 19 26 30 36 45 48 49 49 50 51 51 51 51 52 52 53 54 53 54 58 58 61 60 61 62 61 62 61 62 61 60 62 61 61
38 33 43 47 50 53 49 53 39 36 26 21 29 30 42 46 51 51 47 52 52 50 51 51 52 51 50 50 51 53 56 58 57 59 60 61 61 61 62 60 60 61 62 60
40 35 38 45 43 44 41 44 42 44 33 29 24 34 40 52 50 52 54 55 54 51 51 50 49 49 48 47 48 49 51 53 53 54 55 56 57 58 59 61 61 61 61 60
43 35 32 38 45 47 49 46 45 38 29 29 32 41 44 46 46 54 58 51 50 49 50 49 48 47 47 47 47 47 47 48 49 50 51 52 53 54 55 56 57 59 60 61
41 33 30 33 37 43 44 46 48 40 40 30 31 38 45 43 45 48 50 50 50 49 47 47 45 46 46 46 46 46 46 47 47 47 47 47 48 49 49 49 50 54 56 57
46 34 32 31 37 42 40 44 47 46 39 41 40 46 46 44 43 44 48 50 50 49 48 47 46 47 47 46 46 46 46 46 45 45 45 45 45 45 45 44 46 49 50 50
42 33 34 38 38 41 43 44 46 43 47 42 47 43 44 47 45 45 47 49 49 49 48 48 47 47 46 45 45 46 46 45 45 45 44 43 43 43 42 41 41 44 45 46
37 32 35 34 38 40 38 45 46 46 48 41 40 40 50 49 46 46 48 48 49 50 50 50 48 47 47 47 46 46 45 45 44 44 43 42 42 41 40 40 39 39 38 39
32 31 31 31 35 37 34 41 44 45 49 50 41 50 46 45 47 48 48 48 50 51 51 50 49 49 48 47 47 45 45 43 43 42 40 39 39 38 38 38 38 38 38 38
29 31 30 30 33 26 37 49 51 47 49 52 50 50 48 50 51 51 52 54 53 51 52 50 49 49 48 46 45 45 43 42 41 39 37 37 37 36 36 37 37 37 37 37
38 32 28 26 29 31 34 38 44 43 45 53 51 53 51 48 47 48 50 51 55 53 51 49 48 47 45 45 44 42 40 39 38 37 36 36 37 36 38 36 36 35 34 33
35 36 30 28 26 26 36 39 46 49 38 51 54 53 50 46 47 57 54 51 48 48 47 46 44 42 43 40 40 39 37 37 37 36 36 36 38 36 36 35 34 33 33 33
29 30 27 28 26 27 35 39 52 35 41 56 53 55 54 47 57 62 52 47 47 43 42 41 40 40 38 36 37 37 36 36 36 34 34 32 35 35 35 34 33 33 33 33
30 28 28 28 23 26 36 43 43 51 47 46 55 55 55 56 60 49 50 41 39 39 37 37 35 34 32 34 36 35 35 34 31 31 31 33 34 33 33 34 33 33 33 33
29 35 32 32 32 38 41 43 53 46 48 46 47 53 57 56 56 46 41 37 37 37 34 31 33 29 27 27 32 33 30 29 29 30 31 32 33 33 33 33 33 33 33 33
34 39 34 36 36 39 41 46 42 43 44 43 42 41 48 55 54 41 37 35 35 32 30 26 30 30 28 27 30 32 30 28 30 31 29 30 32 32 32 33 33 33 33 33
36 38 35 32 36 39 40 41 48 45 43 40 38 40 45 42 37 37 34 34 33 31 28 30 30 30 27 28 28 27 26 28 30 29 25 25 26 29 29 29 31 31 30 33
37 39 36 32 40 47 49 47 45 42 43 45 40 35 36 38 37 35 34 33 31 28 28 29 28 28 26 27 26 22 20 27 28 26 23 23 24 22 23 25 23 35 35 36
MSLP
1017.08 1017.34 1016.58 1016.63 1016.77 1017.87 1018.20 1018.49 1017.91 1017.50 1017.46 1017.51 1017.65 1017.17 1017.10 1016.86 1017.24 1017.38 1017.60 1017.65 1017.46 1017.31 1016.60 1017.15 1017.51 1017.96 1018.48 1018.66 1019.10 1019.39 1019.88 1020.34 1021.03 1021.65 1022.24 1022.71 1022.77 1023.04 1023.14 1023.32 1023.55 1023.78 1024.03 1024.34
1016.71 1015.62 1015.84 1016.74 1017.44 1017.76 1017.83 1017.99 1017.46 1017.63 1017.11 1017.45 1017.63 1017.07 1016.80 1016.77 1016.54 1016.48 1016.71 1016.77 1016.49 1016.60 1016.56 1016.63 1016.85 1017.32 1017.73 1017.74 1018.03 1018.54 1018.91 1019.51 1020.07 1020.64 1021.07 1021.62 1022.16 1022.55 1022.70 1022.91 1023.14 1023.38 1023.63 1023.83
1015.45 1014.46 1015.56 1016.12 1016.53 1017.28 1017.15 1017.07 1017.27 1017.23 1017.71 1017.95 1018.14 1017.30 1016.66 1016.13 1015.77 1015.74 1015.47 1015.43 1015.49 1015.37 1015.42 1015.73 1016.09 1016.39 1016.76 1017.09 1017.28 1017.59 1018.04 1018.66 1019.33 1019.89 1020.68 1021.32 1021.76 1022.10 1022.18 1022.27 1022.47 1022.63 1022.91 1023.18
1015.55 1014.99 1015.35 1015.64 1015.83 1016.50 1016.70 1016.67 1017.24 1017.89 1018.35 1018.61 1018.62 1016.91 1015.76 1015.39 1014.90 1014.74 1014.33 1014.22 1014.28 1014.34 1014.33 1014.51 1014.92 1015.37 1015.78 1016.01 1016.32 1016.71 1017.39 1018.04 1018.68 1019.24 1019.94 1020.19 1020.56 1020.93 1020.85 1021.14 1021.50 1021.82 1022.13 1022.30
1015.20 1015.10 1015.48 1014.99 1014.40 1015.33 1015.31 1016.51 1017.28 1017.97 1018.31 1018.76 1018.78 1018.32 1014.88 1014.90 1014.62 1014.13 1013.35 1012.92 1012.92 1012.93 1013.08 1013.27 1013.57 1014.08 1014.46 1014.83 1015.37 1015.76 1016.56 1017.29 1017.84 1018.26 1018.77 1019.43 1019.84 1019.89 1020.23 1020.63 1020.82 1021.10 1021.28 1021.49
1016.17 1015.96 1015.41 1014.22 1014.72 1015.35 1016.09 1016.75 1017.53 1018.23 1018.70 1018.50 1017.84 1017.77 1014.17 1013.98 1013.57 1012.86 1012.22 1011.95 1011.96 1012.09 1012.39 1012.52 1012.64 1013.16 1013.84 1014.25 1014.67 1015.18 1015.83 1016.23 1017.02 1017.48 1017.98 1018.42 1018.68 1019.12 1019.70 1019.94 1020.26 1020.51 1020.69 1020.91
1015.78 1015.74 1015.41 1014.51 1014.21 1014.78 1015.72 1016.45 1017.59 1018.45 1019.28 1018.00 1017.18 1017.71 1013.08 1012.63 1012.08 1011.59 1011.14 1011.29 1011.50 1011.63 1011.93 1012.29 1012.69 1012.99 1013.52 1013.93 1014.23 1014.68 1015.11 1015.54 1016.05 1016.59 1017.11 1017.35 1017.62 1018.24 1018.48 1019.02 1019.48 1019.86 1020.14 1020.29
1015.28 1015.45 1014.61 1012.91 1012.71 1013.05 1013.70 1014.65 1015.06 1016.69 1017.74 1017.69 1017.54 1015.37 1012.54 1011.42 1011.00 1010.83 1010.85 1010.70 1010.98 1011.27 1011.33 1011.78 1012.05 1012.25 1012.72 1013.21 1013.63 1014.07 1014.52 1014.93 1015.38 1015.75 1016.05 1016.52 1017.10 1017.44 1017.82 1018.27 1018.73 1018.97 1019.26 1019.47
1015.08 1014.59 1013.34 1012.98 1012.27 1012.48 1012.99 1013.38 1014.27 1016.07 1018.16 1017.71 1016.71 1014.43 1012.80 1011.35 1010.64 1010.50 1010.71 1010.89 1010.73 1011.20 1011.32 1011.59 1011.85 1011.97 1012.43 1012.98 1013.18 1013.35 1013.91 1014.32 1014.63 1014.88 1015.48 1016.08 1016.53 1016.99 1017.28 1017.66 1018.04 1018.29 1018.53 1018.82
1014.57 1014.29 1012.85 1012.43 1012.07 1011.47 1011.48 1012.30 1014.13 1015.58 1016.94 1017.21 1015.92 1014.39 1011.38 1010.07 1009.68 1010.13 1010.47 1010.39 1010.43 1010.93 1011.45 1011.56 1011.70 1011.86 1012.25 1012.56 1012.74 1013.25 1013.60 1013.89 1014.18 1014.56 1015.05 1015.53 1015.97 1016.37 1016.75 1017.05 1017.28 1017.67 1017.90 1018.15
1014.03 1014.99 1012.83 1012.67 1010.24 1009.90 1011.64 1011.62 1012.71 1013.80 1014.99 1015.21 1014.73 1012.03 1010.44 1010.14 1009.81 1009.57 1008.98 1009.20 1009.97 1010.65 1011.19 1011.49 1011.70 1011.87 1012.38 1012.63 1012.88 1013.03 1013.51 1013.95 1014.28 1014.59 1014.87 1015.19 1015.52 1015.88 1016.22 1016.52 1016.80 1017.03 1017.30 1017.47
1013.29 1014.07 1013.17 1011.21 1010.23 1009.63 1009.42 1009.34 1010.92 1011.69 1013.47 1013.66 1013.06 1009.80 1009.10 1009.47 1009.16 1008.69 1007.95 1008.87 1009.77 1010.67 1010.78 1011.29 1011.63 1011.83 1012.34 1012.83 1013.12 1013.26 1013.58 1013.99 1014.34 1014.56 1014.92 1015.23 1015.47 1015.76 1016.07 1016.35 1016.55 1016.78 1016.82 1016.92
1012.87 1013.47 1012.87 1011.73 1011.00 1009.45 1009.40 1009.59 1009.89 1011.17 1011.66 1012.34 1012.40 1009.07 1008.41 1008.72 1008.93 1008.31 1008.17 1009.29 1009.89 1011.09 1011.54 1011.43 1011.67 1011.87 1012.22 1012.80 1013.27 1013.55 1013.84 1014.19 1014.55 1014.88 1015.23 1015.46 1015.59 1015.85 1016.15 1016.43 1016.63 1016.76 1016.82 1016.82
1011.79 1011.83 1011.75 1011.12 1009.15 1008.00 1008.13 1008.36 1008.56 1009.04 1009.68 1009.23 1009.36 1007.48 1008.41 1008.49 1008.53 1008.43 1008.57 1009.34 1010.27 1010.98 1011.46 1011.62 1011.86 1011.88 1012.13 1012.65 1013.03 1013.42 1013.89 1014.25 1014.66 1014.99 1015.35 1015.72 1015.99 1016.19 1016.54 1016.83 1017.00 1017.15 1017.27 1017.30
1011.10 1010.97 1011.80 1010.97 1010.18 1008.73 1007.13 1005.28 1005.99 1007.25 1005.90 1007.95 1005.94 1007.75 1008.13 1008.18 1008.31 1008.79 1009.16 1009.45 1010.40 1011.01 1011.20 1011.32 1011.71 1012.27 1012.56 1012.79 1013.08 1013.33 1013.75 1014.27 1014.62 1015.16 1015.57 1015.98 1016.33 1016.70 1016.99 1017.22 1017.45 1017.56 1017.66 1017.79
1011.18 1010.47 1010.59 1010.18 1009.73 1008.27 1007.32 1006.67 1006.60 1006.28 1006.23 1007.14 1006.98 1006.93 1006.83 1007.38 1008.01 1008.83 1009.29 1009.95 1010.57 1010.76 1010.76 1010.83 1011.49 1011.92 1012.26 1012.58 1012.96 1013.43 1013.99 1014.55 1014.86 1015.22 1015.66 1016.11 1016.55 1016.94 1017.29 1017.57 1017.80 1017.96 1018.22 1018.31
1012.05 1011.38 1010.77 1009.12 1008.97 1008.47 1006.91 1005.54 1005.19 1004.66 1005.20 1004.89 1005.91 1003.84 1006.53 1007.15 1007.51 1007.98 1008.55 1009.37 1009.80 1009.83 1010.11 1010.59 1011.10 1011.59 1011.75 1012.01 1012.50 1013.29 1013.93 1014.58 1015.07 1015.53 1015.94 1016.33 1016.86 1017.28 1017.50 1017.75 1017.98 1018.27 1018.46 1018.54
1012.46 1012.91 1011.31 1009.82 1008.81 1007.58 1005.20 1004.10 1003.42 1003.42 1003.42 1004.32 1004.77 1004.63 1005.75 1006.13 1006.34 1007.07 1007.09 1007.92 1008.59 1009.39 1009.58 1010.11 1010.70 1011.09 1011.49 1011.71 1012.26 1012.99 1013.91 1014.72 1015.33 1015.95 1016.26 1016.63 1017.11 1017.62 1018.00 1018.28 1018.58 1018.69 1018.91 1019.14
1011.34 1011.43 1011.61 1010.80 1008.90 1007.06 1005.16 1003.99 1003.62 1003.50 1002.53 1002.63 1003.84 1004.46 1004.85 1005.64 1006.53 1006.75 1006.77 1006.98 1007.32 1008.21 1008.83 1009.41 1009.90 1010.55 1011.11 1011.58 1012.11 1012.97 1013.89 1014.58 1015.31 1015.81 1016.28 1016.71 1017.18 1017.66 1018.04 1018.32 1018.79 1019.10 1019.37 1019.65
1011.32 1010.79 1010.95 1010.14 1009.96 1006.84 1003.28 1002.93 1002.72 1003.74 1002.91 1002.46 1002.18 1002.39 1003.65 1005.18 1006.38 1004.40 1005.11 1005.99 1007.13 1008.03 1008.75 1009.51 1010.25 1010.91 1011.42 1011.98 1012.46 1013.18 1014.17 1014.66 1015.11 1015.66 1016.21 1016.68 1017.09 1017.56 1018.13 1018.56 1018.93 1019.23 1019.47 1019.79
1009.66 1010.06 1010.73 1010.53 1009.39 1006.11 1003.66 1002.96 1002.65 1004.30 1000.40 999.44 1000.63 1000.96 1002.79 1003.77 1002.09 1001.76 1004.29 1005.33 1006.21 1007.72 1008.86 1009.84 1010.66 1011.27 1011.95 1012.45 1012.87 1013.51 1014.19 1014.76 1015.20 1015.71 1016.17 1016.78 1017.18 1017.75 1017.98 1018.68 1018.93 1019.21 1019.61 1019.90
1009.10 1009.50 1009.73 1009.64 1008.80 1006.20 1003.31 1003.03 1000.61 997.68 998.83 999.41 1000.07 999.94 1001.25 1001.18 1001.77 1003.73 1004.06 1005.55 1006.71 1008.05 1009.41 1010.14 1011.07 1011.89 1012.47 1012.56 1013.03 1013.65 1014.49 1015.04 1015.35 1015.91 1016.88 1017.35 1017.48 1017.89 1018.53 1018.93 1019.17 1019.31 1019.76 1020.12
1008.36 1006.96 1007.50 1008.00 1006.33 1004.62 1003.85 1000.66 999.59 999.72 999.24 999.64 999.17 999.17 999.28 1000.42 1002.29 1003.62 1004.82 1006.14 1007.28 1008.38 1009.63 1010.43 1011.14 1012.24 1013.27 1012.92 1013.20 1013.78 1014.63 1015.02 1015.62 1016.61 1017.63 1017.61 1018.04 1018.53 1018.89 1019.25 1019.70 1019.79 1019.94 1020.44
1006.89 1006.36 1006.27 1005.92 1004.30 1003.84 1003.15 1000.97 1000.66 1000.99 1000.34 1000.66 1000.31 999.91 1000.72 1001.15 1002.36 1003.75 1005.04 1006.45 1007.76 1008.94 1010.06 1011.08 1011.77 1012.61 1013.19 1013.24 1013.53 1014.10 1014.81 1015.49 1016.35 1017.01 1017.79 1018.32 1018.54 1019.30 1019.23 1019.65 1020.30 1020.36 1020.54 1020.84
1005.39 1005.18 1004.25 1003.40 1002.65 1002.87 1001.93 1001.92 1001.19 1001.44 1001.06 1001.07 1001.38 1001.30 1001.36 1001.85 1002.90 1003.79 1005.31 1006.74 1007.77 1009.01 1010.40 1011.15 1011.89 1012.53 1013.31 1013.69 1014.15 1014.96 1015.34 1015.85 1016.63 1017.48 1017.95 1018.60 1018.88 1019.48 1019.46 1020.15 1020.37 1020.62 1020.90 1021.09
1004.46 1003.46 1003.42 1002.71 1002.47 1001.99 1001.44 1000.73 1000.57 1001.31 1001.56 1001.40 1001.65 1002.05 1002.16 1002.31 1002.95 1004.04 1005.59 1006.54 1007.72 1009.52 1010.75 1011.35 1011.81 1012.75 1013.72 1014.29 1014.89 1015.82 1015.84 1015.86 1016.68 1017.92 1018.61 1019.38 1019.96 1020.04 1020.08 1020.78 1021.30 1021.38 1021.41 1021.64
Wind_Speed
15 11 15 25 22 8 8 6 13 9 6 5 13 17 13 13 4 8 9 8 11 15 19 12 12 13 11 12 13 14 15 13 11 8 8 6 8 6 4 5 6 7 6 6
9 21 20 17 11 14 9 14 14 4 6 6 6 16 13 8 10 10 10 11 13 10 12 9 12 12 16 16 17 16 17 15 14 10 9 5 5 4 4 5 6 7 7 7
21 19 17 18 17 18 16 19 12 7 2 1 2 15 12 8 16 9 9 11 11 15 16 13 12 15 16 17 17 17 17 15 14 14 7 3 3 1 4 5 7 8 10 10
16 22 13 18 21 15 21 10 8 10 7 7 7 9 7 7 18 12 18 17 17 14 11 14 14 14 16 18 16 16 15 15 14 15 12 14 11 11 9 8 7 7 11 12
6 11 24 20 22 26 15 6 7 8 9 3 5 5 7 3 9 9 17 17 17 17 17 17 14 16 14 17 15 16 14 14 15 16 16 12 13 10 6 4 7 10 9 12
6 6 9 19 22 20 4 8 3 4 3 8 16 12 9 9 10 8 13 13 18 17 14 12 12 10 10 12 12 12 14 15 14 16 17 17 17 13 7 8 8 7 7 7
7 12 10 8 18 19 13 14 4 7 5 8 9 9 17 6 10 12 13 10 10 10 10 14 11 10 9 10 12 12 15 16 15 17 17 18 18 14 15 12 9 8 7 7
15 12 17 19 15 12 28 20 8 7 10 8 3 13 9 12 14 10 11 9 7 10 9 10 11 10 11 11 12 14 14 15 14 16 18 16 14 10 10 10 8 8 8 8
9 11 8 12 10 22 21 18 9 6 2 4 6 9 8 11 11 9 9 7 7 8 7 9 9 9 8 8 10 13 13 14 13 15 13 12 11 12 11 9 8 8 7 6
7 5 13 20 6 20 14 24 13 3 6 5 5 7 13 11 18 11 10 15 10 8 7 7 6 6 4 6 7 7 8 10 8 9 8 8 10 10 11 7 11 10 9 8
7 3 3 19 20 21 6 18 5 4 5 6 3 11 7 17 10 13 16 17 12 10 9 7 5 6 5 3 4 6 6 7 7 7 7 7 6 7 7 9 9 10 9 8
16 5 7 27 5 10 27 17 25 14 8 4 1 15 4 9 7 13 12 8 6 7 9 8 6 6 6 5 4 5 5 6 6 5 5 6 5 4 5 5 5 6 9 9
14 6 8 6 8 3 24 16 22 4 3 8 8 10 0 4 7 7 8 6 7 6 6 7 7 7 6 5 5 4 4 5 5 5 5 4 4 4 4 4 3 2 3 4
21 7 7 10 25 16 32 28 27 29 17 25 21 23 6 5 4 3 3 6 7 8 8 4 3 6 6 6 6 6 5 5 5 6 5 5 4 4 4 4 4 4 4 4
14 11 15 20 20 17 29 38 34 30 36 23 31 18 4 5 6 5 5 7 6 7 8 8 7 6 4 5 5 5 4 5 5 6 5 5 5 5 5 6 5 4 3 3
4 4 13 15 17 20 14 25 22 28 25 7 7 9 8 5 7 5 6 7 8 8 8 8 6 7 7 7 7 6 5 6 5 6 6 6 6 6 5 5 4 5 4 3
1 5 4 16 7 11 23 25 26 28 26 29 19 25 7 5 8 10 10 10 13 11 9 9 9 9 8 9 8 7 7 6 6 6 6 6 6 5 4 4 4 4 4 3
4 3 0 3 10 13 6 23 29 29 27 23 17 15 12 9 11 9 11 18 17 10 10 10 8 7 7 5 6 7 7 7 6 6 6 6 6 6 4 4 4 4 3 3
7 4 2 4 8 3 4 8 26 23 28 29 25 19 10 5 6 6 10 13 18 15 10 8 8 6 6 7 7 8 7 7 7 7 7 6 6 6 6 5 5 3 3 2
11 6 6 4 7 8 10 8 6 5 19 20 31 28 19 11 14 19 15 11 11 11 8 9 8 5 7 5 7 8 8 7 7 7 7 7 6 6 5 5 4 2 2 3
5 2 8 11 6 12 7 6 22 16 28 27 23 25 20 15 24 23 7 10 10 8 10 8 7 7 6 5 7 8 7 7 6 6 7 5 5 5 5 5 2 4 5 5
9 9 5 4 4 13 5 12 23 27 3 4 22 26 24 29 28 9 10 10 12 12 9 8 8 6 4 5 6 7 7 6 6 7 6 5 5 4 4 5 3 5 5 5
4 8 8 10 10 3 13 4 14 5 3 5 6 13 23 24 23 11 9 11 10 12 9 5 9 8 2 2 5 8 6 7 8 8 6 5 6 5 4 5 5 4 4 3
4 6 5 4 6 14 9 17 9 6 6 4 4 2 9 18 19 11 11 11 11 10 10 5 10 9 6 3 5 6 7 7 9 9 7 5 7 5 5 4 3 4 3 3
5 8 7 8 7 9 8 9 15 12 5 2 1 4 10 10 10 12 9 12 11 10 9 10 10 9 7 5 7 5 7 9 10 9 7 6 5 6 7 4 3 4 3 2
6 11 9 6 10 13 16 9 6 8 8 6 4 2 4 7 13 9 11 10 13 12 10 10 9 10 8 7 7 4 4 8 11 9 5 4 4 3 4 6 5 12 12 12
Wind_Direction
194 203 211 198 208 213 168 221 215 218 222 157 216 247 240 253 222 240 234 230 222 220 233 226 216 208 201 193 190 192 191 190 181 184 189 202 214 212 207 211 210 202 205 201
199 227 217 203 201 203 188 211 218 222 170 151 252 261 249 228 238 213 214 229 231 234 233 215 206 200 205 199 204 199 200 192 194 193 198 196 186 209 214 203 205 206 199 195
224 220 216 196 188 199 212 208 202 203 129 34 13 270 254 241 245 238 231 223 226 221 228 223 205 201 201 209 203 204 206 199 196 192 178 128 121 155 183 206 211 208 204 209
217 237 213 203 202 191 217 183 193 195 141 221 169 269 239 230 244 216 234 236 237 229 221 218 211 204 200 210 209 205 199 197 195 189 190 200 206 211 217 209 204 204 203 212
200 190 211 219 192 194 234 147 168 194 192 146 206 257 255 185 252 233 236 236 233 225 220 213 206 204 204 206 199 202 195 192 193 192 197 200 213 218 209 195 191 202 208 216
239 311 268 211 202 196 132 136 78 61 205 221 209 209 222 210 209 226 238 233 231 227 224 221 205 194 203 204 198 190 187 198 192 194 200 200 210 209 197 201 207 207 211 214
219 254 269 197 189 186 177 160 184 196 210 230 192 210 243 209 221 218 224 242 231 221 215 224 196 187 192 187 190 186 189 199 194 195 200 206 211 204 211 204 209 204 206 215
220 234 211 185 204 174 193 190 173 192 194 209 84 233 242 225 231 224 224 234 269 230 220 211 210 194 197 196 190 189 192 201 193 196 205 209 210 211 216 209 207 213 214 218
181 228 192 214 184 181 192 200 181 89 23 82 205 282 287 253 262 248 233 232 238 248 223 218 210 203 207 205 197 191 190 203 198 201 205 206 207 209 214 211 199 211 211 205
170 260 200 211 183 207 183 189 193 180 158 231 242 278 235 211 220 232 215 223 219 217 228 212 183 169 197 214 200 192 192 195 192 193 195 201 203 206 214 194 209 210 213 201
174 204 263 198 207 178 171 196 177 162 166 206 238 251 204 223 224 225 224 211 202 197 206 210 183 153 150 126 169 184 181 175 178 180 180 185 190 194 192 207 210 210 208 201
193 169 228 214 199 232 199 192 193 194 201 225 240 252 150 246 283 247 228 189 189 199 190 187 173 156 151 150 140 153 160 177 193 189 185 199 194 194 208 218 219 203 213 210
154 201 255 202 255 287 196 209 192 152 194 209 209 256 79 315 263 217 178 181 174 196 198 176 163 173 170 171 166 166 163 167 158 156 162 156 156 156 164 159 163 181 204 212
165 168 217 238 215 182 190 198 193 199 206 219 218 239 268 295 287 263 164 163 173 181 192 189 179 175 174 179 169 162 162 158 150 143 141 143 146 139 117 88 75 57 31 37
178 187 203 242 271 199 210 196 196 196 214 207 227 233 208 251 235 233 214 166 172 191 187 193 184 199 198 179 169 159 159 154 146 139 136 134 116 109 106 95 84 67 69 62
337 215 174 231 239 208 216 207 198 209 212 246 170 247 196 184 121 154 188 183 195 209 205 200 199 189 196 194 185 178 171 172 151 142 132 125 123 120 112 110 105 93 70 56
326 17 242 221 188 231 211 198 195 207 208 214 207 221 163 186 193 186 189 196 206 207 199 194 193 197 196 194 178 179 171 148 149 143 138 130 124 118 111 107 96 82 77 66
163 190 6 298 150 220 229 209 207 206 207 218 247 175 177 197 205 193 200 196 211 198 201 201 191 197 200 178 159 143 150 153 147 147 140 136 129 118 109 96 90 90 69 59
171 124 331 272 239 324 270 218 192 185 220 215 230 225 213 189 74 275 202 208 206 199 200 193 179 169 160 160 155 146 148 147 153 162 158 151 147 141 141 132 122 84 88 68
177 158 152 43 267 236 238 152 136 113 266 207 214 217 192 143 210 232 200 202 199 187 175 167 160 141 143 143 147 141 161 163 170 164 157 150 149 140 143 145 123 110 94 100
139 121 212 221 251 277 247 204 133 161 234 219 208 217 203 193 212 219 164 190 175 168 157 139 145 149 143 148 154 150 150 172 153 131 132 137 130 141 135 126 115 118 108 108
168 167 186 178 236 268 188 147 167 214 325 130 194 214 204 212 220 187 192 159 153 147 144 144 134 134 132 143 141 138 148 140 124 122 122 133 121 112 117 118 109 110 113 102
209 190 175 192 216 255 230 200 208 353 196 213 204 201 200 204 214 184 173 155 157 153 145 132 140 129 110 124 150 139 151 136 118 114 128 120 104 108 109 120 122 110 100 101
237 187 218 147 242 258 249 259 291 333 339 3 336 249 226 213 213 183 149 151 151 148 145 133 137 144 140 110 114 119 135 121 127 125 122 125 119 109 93 78 72 97 102 104
200 161 195 271 289 307 278 246 246 266 247 282 68 197 213 165 173 158 150 155 151 149 144 153 153 142 125 114 108 121 134 130 122 124 129 120 121 134 114 90 103 105 70 82
189 211 204 230 191 219 242 260 219 226 250 257 191 217 211 176 160 146 155 154 147 150 151 144 131 129 132 124 115 120 111 131 130 124 118 120 116 106 96 110 79 66 75 70